"Pseudo-MPEC" for P10SCp0

Created 2019 Oct 16 16:07:09 UT using Find_Orb

Click here for an explanation of pseudo-MPECs

 
 Astrometry: 
     P10SCp0  C2019 10 095_(ZXO9LFsonq_hGmA7:d`RA2.qri,1qADQ!sjM@v4i[#7Ox(C=hF51
     P10SCp0  C2019 10 09u^!^UMM^y7(*8Oevmbd\wAstrometrygsLredacted;@!p]clickF51
     P10SCp0  C2019 10 09DEAhereE)forPL1F00]mnOIC;Eexplanation6W/MTQF[q+TF*OEF51

Station data:
(F51) Pan-STARRS 1, Haleakala  (N20.707235 W156.255910)  US/Hawaii.
   Observers N. Primak, A. Schultz, S. Watters, J. Thiel, T. Goggia. Measurer
   PS1 Science Consortium. 1.8-m Ritchey-Chrétien + CCD.

Orbital elements:  P10SCp0
   Perihelion 2019 Oct 20.677034 +/- 29.6 TT = 16:14:55 (JD 2458777.177034)
Epoch 2019 Oct 10.0 TT = JDT 2458766.5   Earth MOID: 0.2840   Ju: 0.4143
M 358.11043023 +/- 41               (J2000 ecliptic)          AutoNEOCP
n   0.17697516 +/- 0.389            Peri.  352.45929 +/- 70
a   3.14191551 +/- 4.84             Node    49.11013 +/- 26
e   0.5943136 +/- 0.246             Incl.    9.86887 +/- 42
P   5.57                   H 21.3   G  0.15   U 12.1  SR
q 1.27463228 +/- 0.447    Q 5.00919875 +/- 24.3
From 3 observations 2019 Oct. 9 (34.9 min); mean residual 0".05
Residuals in arcseconds: 
191009 F51  .03+  .04-    191009 F51  .06-  .08+    191009 F51  .00   .04-    

Ephemerides (geocentric):
Date (UTC) HH   RA              Dec         delta   r     elong  mag " sig PA
---- -- -- --  -------------   -----------  ------ ------ -----  --- ---- ---
2019 10 16 16  05 12 30.071   +17 11 37.35  .41455 1.2755 123.9 21.5  67d   8
2019 10 16 17  05 12 36.558   +17 12 47.89  .41445 1.2755 123.9 21.5  67d   8
2019 10 16 18  05 12 43.042   +17 13 58.46  .41435 1.2755 124.0 21.5  67d   8
2019 10 16 19  05 12 49.523   +17 15 09.05  .41425 1.2754 124.0 21.5  68d   8
2019 10 16 20  05 12 56.001   +17 16 19.65  .41415 1.2754 124.0 21.5  68d   8
2019 10 16 21  05 13 02.475   +17 17 30.28  .41405 1.2754 124.0 21.5  68d   8
2019 10 16 22  05 13 08.946   +17 18 40.92  .41395 1.2754 124.0 21.5  68d   8
2019 10 16 23  05 13 15.414   +17 19 51.58  .41385 1.2754 124.0 21.5  68d   8
2019 10 17 00  05 13 21.879   +17 21 02.27  .41375 1.2754 124.0 21.5  68d   8
2019 10 17 01  05 13 28.340   +17 22 12.97  .41365 1.2753 124.1 21.5  68d   8
2019 10 17 02  05 13 34.798   +17 23 23.69  .41355 1.2753 124.1 21.5  68d   8
2019 10 17 03  05 13 41.253   +17 24 34.43  .41345 1.2753 124.1 21.5  68d   8
2019 10 17 04  05 13 47.705   +17 25 45.19  .41336 1.2753 124.1 21.5  68d   8
2019 10 17 05  05 13 54.153   +17 26 55.97  .41326 1.2753 124.1 21.5  69d   8
2019 10 17 06  05 14 00.598   +17 28 06.77  .41316 1.2753 124.1 21.5  69d   8
2019 10 17 07  05 14 07.039   +17 29 17.59  .41306 1.2753 124.1 21.5  69d   8
2019 10 17 08  05 14 13.477   +17 30 28.43  .41296 1.2752 124.2 21.5  69d   8
2019 10 17 09  05 14 19.912   +17 31 39.28  .41286 1.2752 124.2 21.5  69d   8
2019 10 17 10  05 14 26.344   +17 32 50.16  .41277 1.2752 124.2 21.5  69d   8
2019 10 17 11  05 14 32.772   +17 34 01.05  .41267 1.2752 124.2 21.5  69d   8
2019 10 17 12  05 14 39.197   +17 35 11.97  .41257 1.2752 124.2 21.5  69d   8
2019 10 17 13  05 14 45.619   +17 36 22.90  .41247 1.2752 124.2 21.5  69d   8
2019 10 17 14  05 14 52.037   +17 37 33.85  .41238 1.2752 124.3 21.5  69d   8
2019 10 17 15  05 14 58.451   +17 38 44.82  .41228 1.2751 124.3 21.5  69d   8
2019 10 17 16  05 15 04.863   +17 39 55.81  .41218 1.2751 124.3 21.5  69d   8
2019 10 17 17  05 15 11.271   +17 41 06.82  .41209 1.2751 124.3 21.5  69d   8
2019 10 17 18  05 15 17.675   +17 42 17.84  .41199 1.2751 124.3 21.5  70d   8
2019 10 17 19  05 15 24.077   +17 43 28.89  .41190 1.2751 124.3 21.5  70d   8
2019 10 17 20  05 15 30.474   +17 44 39.95  .41180 1.2751 124.3 21.5  70d   8
2019 10 17 21  05 15 36.869   +17 45 51.03  .41170 1.2751 124.4 21.5  70d   9
2019 10 17 22  05 15 43.260   +17 47 02.13  .41161 1.2750 124.4 21.5  70d   9
2019 10 17 23  05 15 49.647   +17 48 13.25  .41151 1.2750 124.4 21.5  70d   9
2019 10 18 00  05 15 56.031   +17 49 24.38  .41142 1.2750 124.4 21.5  70d   9
2019 10 18 01  05 16 02.412   +17 50 35.54  .41132 1.2750 124.4 21.5  70d   9
2019 10 18 02  05 16 08.789   +17 51 46.71  .41123 1.2750 124.4 21.5  70d   9
2019 10 18 03  05 16 15.163   +17 52 57.90  .41113 1.2750 124.5 21.5  70d   9
2019 10 18 04  05 16 21.533   +17 54 09.11  .41104 1.2750 124.5 21.5  70d   9
2019 10 18 05  05 16 27.899   +17 55 20.34  .41095 1.2750 124.5 21.5  70d   9
2019 10 18 06  05 16 34.263   +17 56 31.59  .41085 1.2750 124.5 21.5  70d   9
2019 10 18 07  05 16 40.622   +17 57 42.85  .41076 1.2749 124.5 21.5  70d   9
2019 10 18 08  05 16 46.979   +17 58 54.13  .41066 1.2749 124.5 21.5  70d   9
2019 10 18 09  05 16 53.331   +18 00 05.43  .41057 1.2749 124.5 21.5  70d   9
2019 10 18 10  05 16 59.681   +18 01 16.75  .41048 1.2749 124.6 21.5  70d   9
2019 10 18 11  05 17 06.026   +18 02 28.09  .41038 1.2749 124.6 21.5  70d   9
2019 10 18 12  05 17 12.368   +18 03 39.44  .41029 1.2749 124.6 21.5  70d   9
2019 10 18 13  05 17 18.707   +18 04 50.81  .41020 1.2749 124.6 21.5  70d   9
2019 10 18 14  05 17 25.042   +18 06 02.20  .41010 1.2749 124.6 21.5  70d   9
2019 10 18 15  05 17 31.374   +18 07 13.61  .41001 1.2749 124.6 21.5  70d   9